Flag for West Bank Weather past 2 weeks in Hebron, West Bank

Now
79 °F

Sunny.


Feels Like: 80 °F
Forecast: 55 / 75 °F
Wind: 7 mph from Northwest

Location: Ben Gurion International Airport

Current Time: Apr 26, 2015 at 3:13:05 PM

Latest Report: Apr 26, 2015 at 2:20 PM


Visibility: 10 mi

Pressure: 29.95 "Hg

Humidity: 48%

Dew point: 57 °F

Location of HebronLocation

Historic Weather in Hebron — Graph

°F

Hebron temperature yesterday

Maximum temperature yesterday: 73 °F (at 12:20 PM)
Minimum temperature yesterday: 50 °F (at 4:20 AM)
Average temperature yesterday: 63 °F

Past Weeks' High & Low Weather Summary

 TemperatureHumidityPressure
High90 °F (Apr 20, 1:20 PM)94% (Apr 11, 7:20 PM)30.30 "Hg (Apr 11, 7:20 PM)
Low46 °F (Apr 12, 1:50 PM)12% (Apr 20, 3:50 PM)29.83 "Hg (Apr 15, 1:20 PM)
Average63 °F64%30.06 "Hg
* Reported Apr 11 1:20 PM — Apr 26 1:50 PM, Hebron, Weather by CustomWeather, © 2015

Note: Actual official high and low records may vary slightly from our data, if they occured in-between our weather recording intervals... More about our weather records

Advertising

Hebron weather history for previous 24 hours

 ConditionsComfort  
Time TempWeatherWind HumidityBarometerVisibility
1:50 PM
Sun, Apr 26
79 °FPassing clouds.5 mph48%29.95 "HgN/A
1:20 PM77 °FSunny.5 mph51%29.98 "Hg10 mi
12:50 PM75 °FPassing clouds.7 mph54%29.98 "HgN/A
12:20 PM75 °FPassing clouds.9 mph57%29.98 "HgN/A
11:50 AM75 °FSunny.9 mph57%30.01 "Hg10 mi
11:20 AM77 °FPassing clouds.6 mph39%30.01 "HgN/A
10:50 AM75 °FSunny.3 mph44%30.01 "Hg10 mi
10:20 AM73 °FSunny.2 mph47%30.01 "Hg10 mi
9:50 AM72 °FSunny.2 mph53%30.01 "Hg10 mi
9:20 AM68 °FSunny.1 mph60%30.01 "Hg10 mi
8:50 AM64 °FSunny.2 mph68%30.01 "Hg10 mi
8:20 AM63 °FSunny.5 mph73%30.01 "Hg10 mi
7:50 AM61 °FSunny.3 mph72%30.01 "Hg10 mi
7:20 AM59 °FSunny.2 mph72%30.01 "Hg10 mi
6:50 AM55 °FClear.2 mph77%30.01 "Hg10 mi
6:20 AM54 °FClear.2 mph82%30.01 "Hg10 mi
5:50 AM55 °FClear.3 mph77%30.01 "Hg10 mi
5:20 AM55 °FClear.8 mph77%30.01 "Hg10 mi
4:50 AM54 °FClear.6 mph77%30.01 "Hg10 mi
4:20 AM55 °FClear.3 mph77%30.01 "Hg10 mi
3:50 AM54 °FClear.1 mph82%30.01 "Hg10 mi
3:20 AM55 °FClear.1 mph77%30.01 "Hg10 mi
2:50 AM57 °FClear.3 mph72%30.01 "Hg10 mi
2:20 AM57 °FClear.5 mph72%30.01 "Hg10 mi
1:50 AM57 °FClear.6 mph72%30.04 "Hg10 mi
1:20 AM57 °FClear.3 mph72%30.04 "Hg10 mi
12:20 AM59 °FClear.1 mph68%30.04 "Hg10 mi
11:50 PM
Sat, Apr 25
61 °FClear.1 mph63%30.04 "Hg10 mi
11:20 PM61 °FClear.1 mph63%30.07 "Hg10 mi
10:50 PM61 °FClear.3 mph63%30.07 "Hg10 mi
10:20 PM63 °FClear.3 mph59%30.07 "Hg10 mi
9:50 PM63 °FClear.1 mph64%30.07 "Hg10 mi
9:20 PM64 °FClear.2 mph56%30.07 "Hg10 mi
8:50 PM64 °FClear.5 mph60%30.07 "Hg10 mi
8:20 PM64 °FClear.5 mph60%30.07 "Hg10 mi
7:50 PM64 °FSunny.6 mph60%30.07 "Hg10 mi
7:20 PM66 °FSunny.8 mph56%30.07 "Hg10 mi
6:50 PM66 °FSunny.13 mph60%30.07 "Hg10 mi
6:20 PM68 °FSunny.13 mph53%30.04 "Hg10 mi
5:50 PM70 °FSunny.12 mph50%30.07 "Hg10 mi
5:20 PM70 °FSunny.14 mph53%30.07 "Hg10 mi
4:50 PM72 °FSunny.14 mph47%30.07 "Hg10 mi
4:20 PM72 °FSunny.14 mph50%30.07 "Hg10 mi
3:50 PM72 °FSunny.17 mph47%30.07 "Hg10 mi
3:20 PM72 °FSunny.16 mph44%30.07 "Hg10 mi
Weather by CustomWeather, © 2015

See weather overviewHow to use our weather pages